Regional Weather Roundup
Issued by NWS

Home | Current Version | Previous Version | Graphics & Text | Print | Product List | Glossary On
Versions: 1 2 3 4 5 6 7 8 9 10 11 12 13 14 15 16 17 18 19 20 21 22 23 24 25 26 27 28 29 30 31 32 33 34 35 36 37 38 39 40 41 42 43 44 45 46 47 48 49 50
000
ASUS44 KMEG 131200
RWRTN
TENNESSEE HOURLY STATE WEATHER ROUNDUP
NATIONAL WEATHER SERVICE MEMPHIS TN
600 AM CST SAT FEB 13 2016

TNZ002-004-019-021-049-052-054-088>092-131300-
WEST TENNESSEE

CITY           SKY/WX    TMP DP  RH WIND       PRES   REMARKS
MEMPHIS INTL   PTCLDY    28  13  53 NE14      30.52R WCI  17
NWS MEMPHIS      N/A     26 N/A N/A MISG        N/A
JACKSON        CLEAR     23   9  55 N13       30.54R WCI  11
DYERSBURG      PTCLDY    23  10  58 NE10G17   30.58R WCI  12
UNION CITY     CLOUDY    19  10  68 N16       30.56R WCI   5
PARIS          PTCLDY    18   7  62 N13       30.54R WCI   4
LEXINGTON      CLEAR     21  10  63 N6        30.49R WCI  14
$$

TNZ008-025-027-028-033-062-065-066-131300-
NORTH MIDDLE TENNESSEE

CITY           SKY/WX    TMP DP  RH WIND       PRES   REMARKS
NASHVILLE      PTCLDY    21   9  59 N13       30.50R WCI   9
CLARKSVILLE    CLEAR     18   6  59 N15       30.53R WCI   4
COOKEVILLE     CLEAR     19  10  68 N8        30.41R WCI   9
CROSSVILLE     CLOUDY    18   8  65 NW8       30.34R WCI   8
$$

TNZ061-075-076-078-094-096-097-131300-
SOUTH MIDDLE TENNESSEE

CITY           SKY/WX    TMP DP  RH WIND       PRES   REMARKS
TULLAHOMA      CLEAR     19  10  68 N9        30.42R WCI   9
WINCHESTER     CLEAR     19  10  68 N12       30.43R WCI   7
MCMINNVILLE    CLEAR     19  10  68 N8        30.43R WCI   9
COLUMBIA       CLEAR     21  14  73 N7        30.46R WCI  13
SHELBYVILLE    CLEAR     21  14  73 N7        30.47R WCI  13
$$

TNZ017-018-042-046-047-131300-
NORTHEAST TENNESSEE

CITY           SKY/WX    TMP DP  RH WIND       PRES   REMARKS
TRI CITIES     CLOUDY    20   6  55 NW7       30.30R WCI  11
$$

TNZ012-013-036-069-073-074-131300-
CENTRAL EAST TENNESSEE

CITY           SKY/WX    TMP DP  RH WIND       PRES   REMARKS
KNOXVILLE      CLOUDY    24   9  52 NW7       30.37R WCI  16
OAK RIDGE      CLOUDY    24   9  52 VRB5      30.40R WCI  18
GATLINBURG     MOSUNNY   19   9  63 CALM      30.37R
$$

TNZ083-085-099-131300-
SOUTHEAST TENNESSEE

CITY           SKY/WX    TMP DP  RH WIND       PRES   REMARKS
CHATTANOOGA    PTCLDY    26  12  55 N10       30.41R WCI  16
$$

SKY/WX REPORTED AS FAIR MEANS FEW OR NO CLOUDS BELOW
12 THOUSAND FEET.




USA.gov is the U.S. government's official web portal to all federal, state and local government web resources and services.